{"data":{"norad_id":66417,"epoch":"2026-05-25T01:24:14.050944Z","epoch_age_seconds":67215,"freshness":"FRESH","line1":"1 66417U 25258F   26145.05849596 -.00000085  00000+0  83343-4 0  9998","line2":"2 66417  50.0019  18.5840 0000869  52.4250 307.6701 13.29323540 26664","mean_motion":13.2932354,"eccentricity":8.69e-5,"inclination_deg":50.0019,"raan_deg":18.584,"arg_perigee_deg":52.425,"mean_anomaly_deg":307.6701,"bstar":8.3343e-5,"rev_number":2666,"period_min":108.32577297172,"perigee_km":1148.6617228814,"apogee_km":1149.9699941882,"semimajor_km":7527.4528585348,"source":"CELESTRAK","updated_at":"2026-05-25T13:38:06.206646Z"}}